BEL8RD EBBR-LIMC

Flight info

Callsign BEL8RD
Flight time N/A
Altitude 35000
Route ROUSY DCT GTQ DCT DEVDI DCT RIPUS DCT GERSA DCT SOSON DCT DEGAD Z424 RIXUV
Aircraft A320/M-SDE3FGHIRWY/LB1

Departure

Time N/A
Airport Brussels Airport (EBBR)

Arrival

Time 2026-05-07 17:49
Airport Milan Malpensa International Airport (LIMC)
Time Latitude Longitude Altitude Speed Heading
2026-05-07 17:17 47.39408 8.31715 35002 ft 478 kts 158°
2026-05-07 17:17 47.36371 8.33665 35004 ft 476 kts 161°
2026-05-07 17:17 47.30249 8.37397 35005 ft 476 kts 161°
2026-05-07 17:18 47.24115 8.41085 35002 ft 476 kts 162°
2026-05-07 17:18 47.17989 8.44768 35013 ft 475 kts 162°
2026-05-07 17:19 47.11935 8.48409 35017 ft 475 kts 162°
2026-05-07 17:19 47.05804 8.52049 35007 ft 474 kts 166°
2026-05-07 17:20 46.99436 8.53864 35016 ft 464 kts 179°
2026-05-07 17:20 46.93010 8.54773 35020 ft 464 kts 179°
2026-05-07 17:21 46.86638 8.55698 35022 ft 464 kts 179°
2026-05-07 17:21 46.80218 8.56627 35013 ft 463 kts 179°
2026-05-07 17:22 46.73797 8.57543 35015 ft 463 kts 180°
2026-05-07 17:22 46.67382 8.58456 35002 ft 463 kts 179°
2026-05-07 17:23 46.60961 8.59375 34994 ft 463 kts 180°
2026-05-07 17:23 46.54552 8.60289 35004 ft 463 kts 180°
2026-05-07 17:24 46.48154 8.61046 34991 ft 457 kts 186°
2026-05-07 17:24 46.42006 8.59558 34997 ft 443 kts 204°
2026-05-07 17:25 46.36044 8.57133 34978 ft 447 kts 198°
2026-05-07 17:25 46.29966 8.55408 34971 ft 448 kts 196°
2026-05-07 17:26 46.23834 8.53694 34951 ft 448 kts 197°
2026-05-07 17:26 46.17748 8.51788 34960 ft 446 kts 198°
2026-05-07 17:27 46.11591 8.50459 34966 ft 456 kts 184°
2026-05-07 17:27 46.08425 8.51027 34791 ft 459 kts 173°
2026-05-07 17:27 46.05349 8.52452 33844 ft 469 kts 165°
2026-05-07 17:28 46.02293 8.54120 32967 ft 466 kts 165°
2026-05-07 17:28 45.99319 8.55777 32810 ft 450 kts 165°
2026-05-07 17:28 45.96438 8.57382 32675 ft 435 kts 165°
2026-05-07 17:28 45.93646 8.58918 32431 ft 425 kts 165°
2026-05-07 17:29 45.90942 8.60408 32020 ft 421 kts 162°
2026-05-07 17:29 45.88403 8.62544 31577 ft 427 kts 148°
2026-05-07 17:29 45.86076 8.65171 31091 ft 426 kts 147°
2026-05-07 17:29 45.83771 8.67826 30611 ft 423 kts 146°
2026-05-07 17:30 45.81479 8.70500 30139 ft 421 kts 146°
2026-05-07 17:30 45.79220 8.73147 29620 ft 418 kts 146°
2026-05-07 17:30 45.76965 8.75764 29131 ft 414 kts 149°
2026-05-07 17:30 45.74552 8.77864 28664 ft 403 kts 157°
2026-05-07 17:31 45.72096 8.79760 28188 ft 401 kts 157°
2026-05-07 17:31 45.69642 8.81647 27718 ft 398 kts 157°
2026-05-07 17:31 45.67208 8.83515 27280 ft 395 kts 157°
2026-05-07 17:31 45.64806 8.85356 26984 ft 387 kts 157°
2026-05-07 17:32 45.62488 8.87110 26792 ft 376 kts 160°
2026-05-07 17:32 45.60030 8.88197 26162 ft 369 kts 174°
2026-05-07 17:32 45.57489 8.88880 25537 ft 372 kts 174°
2026-05-07 17:32 45.55817 8.89323 25137 ft 374 kts 174°
2026-05-07 17:33 45.52365 8.90237 24180 ft 378 kts 173°
2026-05-07 17:33 45.49793 8.90927 23350 ft 375 kts 173°
2026-05-07 17:33 45.47231 8.91625 22408 ft 372 kts 173°
2026-05-07 17:33 45.44694 8.92321 21507 ft 370 kts 172°
2026-05-07 17:34 45.42169 8.93015 20632 ft 367 kts 172°
2026-05-07 17:34 45.39674 8.93702 19774 ft 365 kts 172°
2026-05-07 17:34 45.37170 8.94385 18669 ft 370 kts 172°
2026-05-07 17:34 45.34638 8.95071 17480 ft 374 kts 172°
2026-05-07 17:35 45.32074 8.95759 16260 ft 377 kts 172°
2026-05-07 17:35 45.29492 8.96451 15105 ft 378 kts 172°
2026-05-07 17:35 45.26902 8.97150 13972 ft 378 kts 171°
2026-05-07 17:35 45.24353 8.97844 12781 ft 377 kts 171°
2026-05-07 17:36 45.21779 8.98545 11587 ft 374 kts 171°
2026-05-07 17:36 45.19236 8.99232 10447 ft 371 kts 170°
2026-05-07 17:36 45.16715 8.99910 9278 ft 366 kts 170°
2026-05-07 17:36 45.14227 9.00575 8092 ft 361 kts 170°
2026-05-07 17:37 45.11781 9.01226 7029 ft 353 kts 170°
2026-05-07 17:37 45.09394 9.01702 6106 ft 340 kts 181°
2026-05-07 17:37 45.07138 9.01065 5318 ft 324 kts 205°
2026-05-07 17:37 45.05397 8.99283 5066 ft 295 kts 228°
2026-05-07 17:38 45.04330 8.96999 4995 ft 265 kts 247°
2026-05-07 17:38 45.03867 8.94638 5000 ft 236 kts 263°
2026-05-07 17:38 45.03891 8.92384 5009 ft 226 kts 279°
2026-05-07 17:38 45.04364 8.90349 5003 ft 212 kts 300°
2026-05-07 17:39 45.05339 8.88848 5005 ft 207 kts 327°
2026-05-07 17:39 45.06675 8.88123 5011 ft 208 kts 349°
2026-05-07 17:39 45.08085 8.87751 5009 ft 209 kts 348°
2026-05-07 17:39 45.09514 8.87378 5011 ft 209 kts 349°
2026-05-07 17:40 45.10948 8.87004 5008 ft 209 kts 349°
2026-05-07 17:40 45.12377 8.86629 5009 ft 208 kts 348°
2026-05-07 17:40 45.13799 8.86253 5011 ft 208 kts 348°
2026-05-07 17:40 45.15228 8.85875 5010 ft 209 kts 349°
2026-05-07 17:41 45.16657 8.85497 5010 ft 210 kts 349°
2026-05-07 17:41 45.18195 8.85090 5018 ft 235 kts 349°
2026-05-07 17:41 45.19823 8.84662 5009 ft 239 kts 349°
2026-05-07 17:41 45.21464 8.84231 5008 ft 240 kts 349°
2026-05-07 17:42 45.23111 8.83790 5008 ft 240 kts 349°
2026-05-07 17:42 45.24753 8.83345 5027 ft 241 kts 350°
2026-05-07 17:42 45.26409 8.83195 5029 ft 242 kts 356°
2026-05-07 17:42 45.28036 8.82673 5030 ft 240 kts 335°
2026-05-07 17:43 45.29599 8.81854 4994 ft 241 kts 348°
2026-05-07 17:43 45.31252 8.81423 4781 ft 240 kts 349°
2026-05-07 17:43 45.32893 8.81016 4719 ft 241 kts 349°
2026-05-07 17:43 45.34539 8.80603 4664 ft 240 kts 349°
2026-05-07 17:44 45.36196 8.80177 4371 ft 240 kts 349°
2026-05-07 17:44 45.37838 8.79769 4072 ft 239 kts 351°
2026-05-07 17:44 45.39485 8.79433 3770 ft 239 kts 351°
2026-05-07 17:44 45.41141 8.79123 3469 ft 239 kts 352°
2026-05-07 17:45 45.42789 8.78818 3170 ft 239 kts 352°
2026-05-07 17:45 45.44429 8.78481 2998 ft 237 kts 350°
2026-05-07 17:45 45.45500 8.78211 2998 ft 234 kts 348°
2026-05-07 17:45 45.47553 8.77619 2998 ft 214 kts 348°
2026-05-07 17:46 45.48504 8.77351 2999 ft 209 kts 348°
2026-05-07 17:46 45.50317 8.76851 2930 ft 193 kts 349°
2026-05-07 17:46 45.51617 8.76493 2686 ft 188 kts 349°
2026-05-07 17:46 45.52477 8.76257 2520 ft 185 kts 349°
2026-05-07 17:47 45.53714 8.75916 2287 ft 175 kts 349°
2026-05-07 17:47 45.54874 8.75597 2061 ft 163 kts 349°
2026-05-07 17:47 45.55967 8.75296 1855 ft 158 kts 349°
2026-05-07 17:47 45.57023 8.75005 1655 ft 155 kts 349°
2026-05-07 17:48 45.58078 8.74714 1445 ft 154 kts 349°
2026-05-07 17:48 45.59118 8.74428 1243 ft 152 kts 349°
2026-05-07 17:48 45.60151 8.74145 1040 ft 151 kts 349°
2026-05-07 17:48 45.61182 8.73862 859 ft 150 kts 349°
2026-05-07 17:49 45.62191 8.73579 746 ft 140 kts 349°
2026-05-07 17:49 45.62987 8.73359 742 ft 91 kts 349°
2026-05-07 17:49 45.63482 8.73224 745 ft 53 kts 349°
2026-05-07 17:49 45.63756 8.73024 749 ft 43 kts 314°
2026-05-07 17:50 45.63848 8.72844 750 ft 11 kts 303°
2026-05-07 17:50 45.63886 8.72763 752 ft 9 kts 304°
2026-05-07 17:50 45.63918 8.72695 748 ft 8 kts 304°
2026-05-07 17:50 45.63945 8.72638 748 ft 6 kts 304°
2026-05-07 17:51 45.63947 8.72513 748 ft 24 kts 255°
2026-05-07 17:51 45.63918 8.72223 750 ft 31 kts 264°
2026-05-07 17:51 45.63900 8.71908 750 ft 25 kts 255°
2026-05-07 17:51 45.63764 8.71834 749 ft 23 kts 170°
2026-05-07 17:52 45.63603 8.71877 748 ft 24 kts 169°
2026-05-07 17:52 45.63431 8.71925 752 ft 26 kts 169°
2026-05-07 17:52 45.63249 8.71975 751 ft 27 kts 169°
2026-05-07 17:52 45.63060 8.72028 751 ft 29 kts 169°
2026-05-07 17:53 45.62861 8.72083 752 ft 29 kts 168°
2026-05-07 17:53 45.62709 8.72113 750 ft 13 kts 200°
2026-05-07 17:53 45.62675 8.72015 752 ft 10 kts 259°
2026-05-07 17:53 45.62662 8.71923 751 ft 9 kts 259°
2026-05-07 17:54 45.62647 8.71849 752 ft 7 kts 231°
2026-05-07 17:54 45.62598 8.71843 751 ft 14 kts 169°
2026-05-07 17:54 45.62516 8.71842 749 ft 4 kts 263°
2026-05-07 17:54 45.62512 8.71806 753 ft 3 kts 261°
2026-05-07 17:55 45.62507 8.71761 751 ft 0 kts 257°
2026-05-07 17:55 45.62506 8.71757 751 ft 2 kts 262°
2026-05-07 17:55 45.62505 8.71750 752 ft 0 kts 259°